| time (UTC) | temp F | wind direction | speed MPH | gust MPH | rain 1hr in | rain 24hr in | rain mn in | humidity % | barometer mb |
| 20260901221037 | 63 | 0.0 | 1.0 | 0.02 | 0.36 | 0.36 | 11 | 1016.1 | |
| 20260901220516 | 64 | 349 | 0.0 | 1.0 | 0.02 | 0.36 | 0.36 | 11 | 1016.1 |
| 20260901220016 | 64 | 0.0 | 0.0 | 0.02 | 0.36 | 0.36 | 12 | 1016.0 | |
| 20260901215516 | 64 | 0.0 | 0.0 | 0.03 | 0.36 | 0.36 | 12 | 1015.9 | |
| 20260901215016 | 64 | 0.0 | 2.0 | 0.03 | 0.36 | 0.36 | 12 | 1015.9 | |
| 20260901214516 | 64 | 194 | 0.0 | 2.0 | 0.03 | 0.36 | 0.36 | 12 | 1015.9 |
| 20260901214015 | 64 | 310 | 0.0 | 2.0 | 0.02 | 0.35 | 0.35 | 11 | 1015.8 |
| 20260901213516 | 64 | 308 | 0.0 | 4.0 | 0.02 | 0.35 | 0.35 | 11 | 1015.7 |
| 20260901213016 | 65 | 257 | 0.0 | 4.0 | 0.02 | 0.35 | 0.35 | 11 | 1015.7 |
| 20260901212516 | 65 | 241 | 0.0 | 3.0 | 0.03 | 0.35 | 0.35 | 10 | 1015.7 |
| 20260901212036 | 65 | 276 | 0.0 | 3.0 | 0.03 | 0.35 | 0.35 | 10 | 1015.7 |
| 20260901211516 | 65 | 209 | 0.0 | 3.0 | 0.04 | 0.35 | 0.35 | 9 | 1015.7 |
| 20260901211016 | 65 | 223 | 0.0 | 3.0 | 0.03 | 0.34 | 0.34 | 9 | 1015.6 |
| 20260901210517 | 65 | 0.0 | 0.0 | 0.03 | 0.34 | 0.34 | 9 | 1015.5 | |
| 20260901210037 | 65 | 0.0 | 0.0 | 0.04 | 0.34 | 0.34 | 9 | 1015.4 | |
| 20260901205516 | 65 | 0.0 | 1.0 | 0.03 | 0.33 | 0.33 | 9 | 1015.3 | |
| 20260901205016 | 65 | 277 | 0.0 | 1.0 | 0.04 | 0.33 | 0.33 | 9 | 1015.2 |
| 20260901204516 | 65 | 0.0 | 1.0 | 0.04 | 0.33 | 0.33 | 9 | 1015.2 | |
| 20260901204035 | 65 | 277 | 0.0 | 1.0 | 0.04 | 0.33 | 0.33 | 9 | 1015.1 |
| 20260901203515 | 65 | 277 | 0.0 | 1.0 | 0.06 | 0.33 | 0.33 | 10 | 1015.1 |
| 20260901203015 | 65 | 0.0 | 0.0 | 0.06 | 0.33 | 0.33 | 9 | 1015.1 | |
| 20260901202516 | 65 | 0.0 | 0.0 | 0.05 | 0.32 | 0.32 | 9 | 1015.2 | |
| 20260901202015 | 65 | 0.0 | 0.0 | 0.06 | 0.32 | 0.32 | 9 | 1015.2 | |
| 20260901201516 | 65 | 0.0 | 0.0 | 0.06 | 0.31 | 0.31 | 9 | 1015.1 | |
| 20260901201036 | 65 | 0.0 | 0.0 | 0.06 | 0.31 | 0.31 | 10 | 1015.1 | |
| 20260901200516 | 65 | 0.0 | 0.0 | 0.06 | 0.31 | 0.31 | 10 | 1015.1 | |
| 20260901200015 | 65 | 0.0 | 0.0 | 0.06 | 0.30 | 0.30 | 10 | 1015.1 | |
| 20260901195516 | 65 | 0.0 | 1.0 | 0.07 | 0.30 | 0.30 | 10 | 1015.2 | |
| 20260901195035 | 65 | 277 | 0.0 | 1.0 | 0.06 | 0.29 | 0.29 | 10 | 1015.1 |
| 20260901194515 | 65 | 65 | 0.0 | 1.0 | 0.06 | 0.29 | 0.29 | 9 | 1015.1 |
| 20260901194035 | 65 | 66 | 0.0 | 1.0 | 0.07 | 0.29 | 0.29 | 9 | 1015.1 |
| 20260901193515 | 65 | 0.0 | 0.0 | 0.05 | 0.27 | 0.27 | 9 | 1015.0 | |
| 20260901193015 | 65 | 0.0 | 0.0 | 0.06 | 0.27 | 0.27 | 10 | 1015.1 | |
| 20260901192516 | 65 | 0.0 | 2.0 | 0.06 | 0.27 | 0.27 | 10 | 1015.1 | |
| 20260901192016 | 65 | 226 | 0.0 | 2.0 | 0.06 | 0.26 | 0.26 | 10 | 1015.1 |
| 20260901191516 | 65 | 339 | 0.0 | 1.0 | 0.06 | 0.25 | 0.25 | 10 | 1015.2 |
| 20260901191035 | 65 | 339 | 0.0 | 1.0 | 0.07 | 0.25 | 0.25 | 10 | 1015.1 |
| 20260901190515 | 65 | 0.0 | 0.0 | 0.08 | 0.25 | 0.25 | 10 | 1015.1 | |
| 20260901190015 | 65 | 0.0 | 0.0 | 0.07 | 0.24 | 0.24 | 10 | 1015.1 | |
| 20260901185515 | 65 | 0.0 | 0.0 | 0.06 | 0.23 | 0.23 | 10 | 1015.2 | |
| 20260901185015 | 65 | 0.0 | 0.0 | 0.06 | 0.23 | 0.23 | 10 | 1015.2 | |
| 20260901184515 | 65 | 0.0 | 0.0 | 0.06 | 0.23 | 0.23 | 10 | 1015.2 | |
| 20260901184015 | 65 | 0.0 | 0.0 | 0.05 | 0.22 | 0.22 | 10 | 1015.2 | |
| 20260901183515 | 65 | 0.0 | 0.0 | 0.05 | 0.22 | 0.22 | 10 | 1015.2 | |
| 20260901183015 | 64 | 0.0 | 0.0 | 0.04 | 0.21 | 0.21 | 10 | 1015.3 | |
| 20260901182515 | 64 | 0.0 | 0.0 | 0.04 | 0.21 | 0.21 | 10 | 1015.3 | |
| 20260901182016 | 64 | 0.0 | 0.0 | 0.03 | 0.20 | 0.20 | 11 | 1015.3 | |
| 20260901181515 | 64 | 0.0 | 0.0 | 0.02 | 0.19 | 0.19 | 11 | 1015.3 | |
| 20260901181015 | 64 | 0.0 | 0.0 | 0.01 | 0.18 | 0.18 | 11 | 1015.3 | |
| 20260901180515 | 64 | 0.0 | 0.0 | 0.00 | 0.17 | 0.17 | 11 | 1015.2 | |
| 20260901180015 | 64 | 0.0 | 0.0 | 0.01 | 0.17 | 0.17 | 11 | 1015.1 | |
| 20260901175535 | 64 | 0.0 | 0.0 | 0.01 | 0.17 | 0.17 | 11 | 1015.0 | |
| 20260901175015 | 64 | 0.0 | 0.0 | 0.02 | 0.17 | 0.17 | 11 | 1014.9 | |
| 20260901174535 | 65 | 0.0 | 1.0 | 0.02 | 0.17 | 0.17 | 11 | 1014.8 | |
| 20260901174017 | 65 | 339 | 0.0 | 1.0 | 0.03 | 0.17 | 0.17 | 11 | 1014.8 |
| 20260901173515 | 65 | 339 | 0.0 | 3.0 | 0.04 | 0.17 | 0.17 | 10 | 1014.7 |
| 20260901173015 | 65 | 339 | 0.0 | 3.0 | 0.04 | 0.17 | 0.17 | 11 | 1014.7 |
| 20260901172515 | 65 | 339 | 0.0 | 2.0 | 0.04 | 0.17 | 0.17 | 11 | 1014.7 |
| 20260901172015 | 65 | 339 | 0.0 | 1.0 | 0.04 | 0.17 | 0.17 | 11 | 1014.7 |
| 20260901171515 | 65 | 0.0 | 2.0 | 0.04 | 0.17 | 0.17 | 11 | 1014.7 | |
| 20260901171015 | 65 | 339 | 0.0 | 2.0 | 0.04 | 0.17 | 0.17 | 11 | 1014.8 |
| 20260901170515 | 65 | 339 | 0.0 | 3.0 | 0.04 | 0.17 | 0.17 | 11 | 1014.8 |
| 20260901170015 | 65 | 339 | 0.0 | 3.0 | 0.03 | 0.16 | 0.16 | 11 | 1014.7 |
| 20260901165535 | 65 | 0.0 | 0.0 | 0.03 | 0.16 | 0.16 | 11 | 1014.8 | |
| 20260901165035 | 65 | 0.0 | 0.0 | 0.02 | 0.15 | 0.15 | 11 | 1014.8 | |
| 20260901164515 | 65 | 0.0 | 0.0 | 0.02 | 0.15 | 0.15 | 11 | 1014.9 | |
| 20260901164015 | 65 | 0.0 | 2.0 | 0.01 | 0.14 | 0.14 | 11 | 1014.9 | |
| 20260901163515 | 65 | 339 | 0.0 | 2.0 | 0.00 | 0.13 | 0.13 | 11 | 1015.0 |
| 20260901163035 | 65 | 0.0 | 2.0 | 0.00 | 0.13 | 0.13 | 11 | 1015.1 | |
| 20260901162515 | 65 | 339 | 0.0 | 2.0 | 0.00 | 0.13 | 0.13 | 11 | 1015.1 |
| 20260901162015 | 65 | 339 | 0.0 | 2.0 | 0.00 | 0.13 | 0.13 | 11 | 1015.1 |
| 20260901161515 | 65 | 0.0 | 0.0 | 0.00 | 0.13 | 0.13 | 12 | 1015.2 | |
| 20260901161015 | 65 | 0.0 | 3.0 | 0.00 | 0.13 | 0.13 | 12 | 1015.2 | |
| 20260901160555 | 65 | 339 | 1.0 | 3.0 | 0.00 | 0.13 | 0.13 | 12 | 1015.1 |
| 20260901160015 | 65 | 0.0 | 0.0 | 0.00 | 0.13 | 0.13 | 12 | 1014.9 | |
| 20260901155535 | 65 | 0.0 | 0.0 | 0.00 | 0.13 | 0.13 | 12 | 1014.9 | |
| 20260901155015 | 66 | 0.0 | 3.0 | 0.00 | 0.13 | 0.13 | 12 | 1014.8 | |
| 20260901154515 | 66 | 338 | 0.0 | 3.0 | 0.00 | 0.13 | 0.13 | 12 | 1014.8 |
| 20260901154015 | 66 | 0.0 | 2.0 | 0.00 | 0.13 | 0.13 | 11 | 1014.8 | |
| 20260901153515 | 66 | 338 | 0.0 | 2.0 | 0.00 | 0.13 | 0.13 | 12 | 1014.7 |
| 20260901153015 | 66 | 0.0 | 0.0 | 0.00 | 0.13 | 0.13 | 12 | 1014.7 | |
| 20260901152515 | 66 | 0.0 | 0.0 | 0.00 | 0.13 | 0.13 | 12 | 1014.8 | |
| 20260901152055 | 67 | 0.0 | 1.0 | 0.00 | 0.13 | 0.13 | 11 | 1014.7 | |
| 20260901151515 | 67 | 315 | 0.0 | 1.0 | 0.00 | 0.13 | 0.13 | 10 | 1014.8 |
| 20260901151035 | 67 | 0.0 | 0.0 | 0.00 | 0.13 | 0.13 | 9 | 1014.9 | |
| 20260901150515 | 67 | 0.0 | 0.0 | 0.00 | 0.13 | 0.13 | 9 | 1014.9 | |
| 20260901150015 | 67 | 0.0 | 0.0 | 0.00 | 0.13 | 0.13 | 9 | 1014.9 | |
| 20260901145515 | 67 | 0.0 | 0.0 | 0.00 | 0.13 | 0.13 | 9 | 1014.9 | |
| 20260901145015 | 67 | 0.0 | 0.0 | 0.00 | 0.13 | 0.13 | 9 | 1014.8 | |
| 20260901144535 | 67 | 0.0 | 0.0 | 0.00 | 0.13 | 0.13 | 9 | 1014.8 | |
| 20260901144015 | 67 | 0.0 | 0.0 | 0.00 | 0.13 | 0.13 | 9 | 1014.8 | |
| 20260901143515 | 66 | 0.0 | 0.0 | 0.00 | 0.13 | 0.13 | 9 | 1014.8 | |
| 20260901143015 | 66 | 0.0 | 0.0 | 0.00 | 0.13 | 0.13 | 9 | 1014.8 | |
| 20260901142515 | 66 | 0.0 | 0.0 | 0.00 | 0.13 | 0.13 | 10 | 1014.9 | |
| 20260901142015 | 66 | 0.0 | 0.0 | 0.00 | 0.13 | 0.13 | 10 | 1014.9 | |
| 20260901141515 | 66 | 0.0 | 0.0 | 0.00 | 0.13 | 0.13 | 10 | 1014.9 | |
| 20260901141015 | 66 | 0.0 | 0.0 | 0.00 | 0.13 | 0.13 | 10 | 1015.0 | |
| 20260901140535 | 66 | 0.0 | 0.0 | 0.00 | 0.13 | 0.13 | 9 | 1014.9 | |
| 20260901140015 | 66 | 0.0 | 0.0 | 0.00 | 0.13 | 0.13 | 10 | 1014.9 | |
| 20260901135515 | 66 | 0.0 | 0.0 | 0.01 | 0.13 | 0.13 | 10 | 1014.9 | |
| 20260901135015 | 66 | 0.0 | 0.0 | 0.01 | 0.13 | 0.13 | 10 | 1014.9 | |
| 20260901134515 | 66 | 0.0 | 0.0 | 0.02 | 0.13 | 0.13 | 10 | 1015.0 | |
| 20260901134015 | 66 | 0.0 | 1.0 | 0.02 | 0.13 | 0.13 | 10 | 1015.0 | |
| 20260901133557 | 66 | 179 | 0.0 | 1.0 | 0.03 | 0.13 | 0.13 | 10 | 1015.1 |
| 20260901133017 | 66 | 0.0 | 0.0 | 0.04 | 0.13 | 0.13 | 10 | 1015.2 | |
| 20260901132517 | 66 | 0.0 | 0.0 | 0.05 | 0.13 | 0.13 | 10 | 1015.2 | |
| 20260901132037 | 66 | 0.0 | 0.0 | 0.06 | 0.13 | 0.13 | 10 | 1015.3 | |
| 20260901131516 | 66 | 0.0 | 0.0 | 0.08 | 0.13 | 0.13 | 10 | 1015.3 | |
| 20260901131017 | 66 | 0.0 | 0.0 | 0.09 | 0.13 | 0.13 | 11 | 1015.4 | |
| 20260901130517 | 66 | 0.0 | 0.0 | 0.09 | 0.13 | 0.13 | 11 | 1015.4 | |
| 20260901130017 | 65 | 0.0 | 0.0 | 0.09 | 0.13 | 0.13 | 11 | 1015.4 | |
| 20260901125516 | 65 | 0.0 | 0.0 | 0.09 | 0.12 | 0.12 | 11 | 1015.4 | |
| 20260901125017 | 65 | 0.0 | 0.0 | 0.09 | 0.12 | 0.12 | 11 | 1015.2 | |
| 20260901124516 | 65 | 0.0 | 0.0 | 0.09 | 0.11 | 0.11 | 11 | 1015.2 | |
| 20260901124017 | 65 | 0.0 | 0.0 | 0.09 | 0.11 | 0.11 | 12 | 1015.2 | |
| 20260901123516 | 65 | 0.0 | 0.0 | 0.08 | 0.10 | 0.10 | 12 | 1015.2 | |
| 20260901123016 | 65 | 0.0 | 0.0 | 0.07 | 0.09 | 0.09 | 12 | 1015.4 | |
| 20260901122517 | 65 | 0.0 | 0.0 | 0.06 | 0.08 | 0.08 | 12 | 1015.4 | |
| 20260901122017 | 65 | 0.0 | 0.0 | 0.05 | 0.07 | 0.07 | 12 | 1015.5 | |
| 20260901121517 | 65 | 0.0 | 0.0 | 0.03 | 0.05 | 0.05 | 13 | 1015.5 | |
| 20260901121016 | 65 | 0.0 | 0.0 | 0.02 | 0.04 | 0.04 | 13 | 1015.4 | |
| 20260901120516 | 65 | 0.0 | 0.0 | 0.02 | 0.04 | 0.04 | 13 | 1015.3 | |
| 20260901120057 | 65 | 0.0 | 0.0 | 0.02 | 0.04 | 0.04 | 13 | 1015.3 | |
| 20260901115516 | 65 | 0.0 | 0.0 | 0.01 | 0.03 | 0.03 | 13 | 1015.3 | |
| 20260901115016 | 65 | 0.0 | 0.0 | 0.01 | 0.03 | 0.03 | 14 | 1015.3 | |
| 20260901114516 | 65 | 0.0 | 0.0 | 0.00 | 0.02 | 0.02 | 14 | 1015.3 | |
| 20260901114016 | 65 | 0.0 | 0.0 | 0.01 | 0.02 | 0.02 | 15 | 1015.4 | |
| 20260901113536 | 65 | 0.0 | 1.0 | 0.01 | 0.02 | 0.02 | 15 | 1015.4 | |
| 20260901113016 | 65 | 179 | 0.0 | 1.0 | 0.01 | 0.02 | 0.02 | 16 | 1015.5 |
| 20260901112516 | 65 | 0.0 | 0.0 | 0.01 | 0.02 | 0.02 | 16 | 1015.4 | |
| 20260901112016 | 65 | 0.0 | 0.0 | 0.01 | 0.02 | 0.02 | 16 | 1015.3 | |
| 20260901111516 | 65 | 0.0 | 0.0 | 0.01 | 0.02 | 0.02 | 16 | 1015.3 | |
| 20260901111016 | 65 | 0.0 | 0.0 | 0.01 | 0.02 | 0.02 | 18 | 1015.2 | |
| 20260901110536 | 65 | 0.0 | 0.0 | 0.01 | 0.02 | 0.02 | 19 | 1015.2 | |
| 20260901110016 | 65 | 0.0 | 0.0 | 0.01 | 0.02 | 0.02 | 20 | 1015.1 | |
| 20260901105516 | 65 | 0.0 | 0.0 | 0.02 | 0.02 | 0.02 | 20 | 1015.1 | |
| 20260901105016 | 65 | 0.0 | 0.0 | 0.02 | 0.02 | 0.02 | 20 | 1015.0 | |
| 20260901104556 | 65 | 0.0 | 0.0 | 0.02 | 0.02 | 0.02 | 21 | 1015.0 | |
| 20260901104016 | 65 | 0.0 | 0.0 | 0.01 | 0.01 | 0.01 | 22 | 1015.0 | |
| 20260901103516 | 65 | 0.0 | 0.0 | 0.01 | 0.01 | 0.01 | 22 | 1014.9 | |
| 20260901103036 | 65 | 0.0 | 0.0 | 0.01 | 0.01 | 0.01 | 23 | 1014.7 | |
| 20260901102536 | 65 | 0.0 | 0.0 | 0.01 | 0.01 | 0.01 | 25 | 1014.6 | |
| 20260901102016 | 65 | 0.0 | 0.0 | 0.01 | 0.01 | 0.01 | 26 | 1014.6 | |
| 20260901101516 | 65 | 0.0 | 0.0 | 0.01 | 0.01 | 0.01 | 27 | 1014.6 | |
| 20260901101016 | 65 | 0.0 | 0.0 | 0.01 | 0.01 | 0.01 | 29 | 1014.6 | |
| 20260901100516 | 65 | 0.0 | 1.0 | 0.01 | 0.01 | 0.01 | 30 | 1014.7 | |
| 20260901100016 | 65 | 179 | 0.0 | 1.0 | 0.01 | 0.01 | 0.01 | 31 | 1014.6 |
| 20260901095516 | 65 | 179 | 0.0 | 1.0 | 0.00 | 0.00 | 0.00 | 33 | 1014.6 |
| 20260901095016 | 66 | 0.0 | 0.0 | 0.00 | 0.00 | 0.00 | 34 | 1014.6 | |
| 20260901094516 | 65 | 0.0 | 1.0 | 0.00 | 0.00 | 0.00 | 35 | 1014.6 | |
| 20260901094016 | 65 | 179 | 0.0 | 1.0 | 0.00 | 0.00 | 0.00 | 37 | 1014.6 |
| 20260901093516 | 65 | 179 | 0.0 | 1.0 | 0.00 | 0.00 | 0.00 | 36 | 1014.5 |
| 20260901093016 | 65 | 0.0 | 1.0 | 0.00 | 0.00 | 0.00 | 36 | 1014.5 | |
| 20260901092516 | 65 | 179 | 0.0 | 1.0 | 0.00 | 0.00 | 0.00 | 34 | 1014.5 |
| 20260901092016 | 65 | 0.0 | 0.0 | 0.00 | 0.00 | 0.00 | 34 | 1014.5 | |
| 20260901091536 | 65 | 0.0 | 0.0 | 0.00 | 0.00 | 0.00 | 35 | 1014.4 | |
| 20260901091016 | 65 | 0.0 | 1.0 | 0.00 | 0.00 | 0.00 | 36 | 1014.4 | |
| 20260901090516 | 65 | 179 | 0.0 | 1.0 | 0.00 | 0.00 | 0.00 | 36 | 1014.4 |
| 20260901090016 | 65 | 0.0 | 0.0 | 0.00 | 0.00 | 0.00 | 35 | 1014.4 | |
| 20260901085536 | 65 | 0.0 | 0.0 | 0.00 | 0.00 | 0.00 | 35 | 1014.5 | |
| 20260901085016 | 65 | 0.0 | 0.0 | 0.00 | 0.00 | 0.00 | 37 | 1014.4 | |
| 20260901084516 | 65 | 0.0 | 0.0 | 0.00 | 0.00 | 0.00 | 39 | 1014.4 | |
| 20260901084016 | 65 | 0.0 | 0.0 | 0.00 | 0.00 | 0.00 | 40 | 1014.5 | |
| 20260901083516 | 65 | 0.0 | 0.0 | 0.00 | 0.00 | 0.00 | 40 | 1014.5 | |
| 20260901083056 | 65 | 0.0 | 0.0 | 0.00 | 0.00 | 0.00 | 40 | 1014.4 | |
| 20260901082516 | 66 | 0.0 | 0.0 | 0.00 | 0.00 | 0.00 | 40 | 1014.5 | |
| 20260901082036 | 66 | 0.0 | 0.0 | 0.00 | 0.00 | 0.00 | 41 | 1014.5 | |
| 20260901081536 | 66 | 0.0 | 0.0 | 0.00 | 0.00 | 0.00 | 42 | 1014.5 | |
| 20260901081016 | 66 | 0.0 | 0.0 | 0.00 | 0.00 | 0.00 | 41 | 1014.5 | |
| 20260901080516 | 66 | 0.0 | 0.0 | 0.00 | 0.00 | 0.00 | 41 | 1014.4 | |
| 20260901080016 | 66 | 0.0 | 0.0 | 0.00 | 0.00 | 0.00 | 41 | 1014.4 | |
| 20260901075516 | 66 | 0.0 | 0.0 | 0.00 | 0.00 | 0.00 | 41 | 1014.5 | |
| 20260901075016 | 66 | 0.0 | 0.0 | 0.00 | 0.00 | 0.00 | 41 | 1014.5 | |
| 20260901074516 | 66 | 0.0 | 0.0 | 0.00 | 0.00 | 0.00 | 42 | 1014.6 | |
| 20260901074016 | 66 | 0.0 | 0.0 | 0.00 | 0.00 | 0.00 | 42 | 1014.7 | |
| 20260901073516 | 66 | 0.0 | 0.0 | 0.00 | 0.00 | 0.00 | 43 | 1014.7 | |
| 20260901073016 | 66 | 0.0 | 0.0 | 0.00 | 0.00 | 0.00 | 43 | 1014.8 | |
| 20260901072516 | 66 | 0.0 | 0.0 | 0.00 | 0.00 | 0.00 | 40 | 1014.9 | |
| 20260901072016 | 66 | 0.0 | 0.0 | 0.00 | 0.00 | 0.00 | 38 | 1014.9 | |
| 20260901071516 | 66 | 0.0 | 0.0 | 0.00 | 0.00 | 0.00 | 38 | 1014.9 | |
| 20260901071016 | 66 | 0.0 | 0.0 | 0.00 | 0.00 | 0.00 | 40 | 1014.9 | |
| 20260901070516 | 66 | 0.0 | 0.0 | 0.00 | 0.00 | 0.00 | 41 | 1015.0 | |
| 20260901070016 | 66 | 0.0 | 0.0 | 0.00 | 0.00 | 0.00 | 40 | 1015.1 | |
| 20260901065516 | 66 | 0.0 | 0.0 | 0.00 | 0.00 | 0.00 | 40 | 1015.1 | |
| 20260901065016 | 66 | 0.0 | 0.0 | 0.00 | 0.00 | 0.00 | 40 | 1015.2 | |
| 20260901064515 | 66 | 0.0 | 0.0 | 0.00 | 0.00 | 0.00 | 40 | 1015.2 | |
| 20260901064016 | 66 | 0.0 | 0.0 | 0.00 | 0.00 | 0.00 | 40 | 1015.1 | |
| 20260901063515 | 66 | 0.0 | 0.0 | 0.00 | 0.00 | 0.00 | 39 | 1015.1 | |
| 20260901063015 | 66 | 0.0 | 0.0 | 0.00 | 0.00 | 0.00 | 39 | 1015.0 | |
| 20260901062515 | 66 | 0.0 | 0.0 | 0.00 | 0.00 | 0.00 | 38 | 1015.0 | |
| 20260901062016 | 66 | 0.0 | 0.0 | 0.00 | 0.00 | 0.00 | 37 | 1015.1 | |
| 20260901061516 | 66 | 0.0 | 0.0 | 0.00 | 0.00 | 0.00 | 37 | 1015.1 | |
| 20260901061016 | 66 | 0.0 | 0.0 | 0.00 | 0.00 | 0.00 | 37 | 1015.2 | |
| 20260901060515 | 66 | 0.0 | 0.0 | 0.00 | 0.00 | 0.00 | 39 | 1015.2 | |
| 20260901060036 | 65 | 0.0 | 0.0 | 0.00 | 0.00 | 0.00 | 38 | 1015.3 | |
| 20260901055516 | 65 | 0.0 | 0.0 | 0.00 | 0.00 | 0.00 | 38 | 1015.2 | |
| 20260901055015 | 65 | 0.0 | 0.0 | 0.00 | 0.00 | 0.00 | 38 | 1015.2 | |
| 20260901054515 | 65 | 0.0 | 0.0 | 0.00 | 0.00 | 0.00 | 39 | 1015.2 | |
| 20260901054015 | 65 | 0.0 | 0.0 | 0.00 | 0.00 | 0.00 | 39 | 1015.2 | |
| 20260901053516 | 65 | 0.0 | 0.0 | 0.00 | 0.00 | 0.00 | 38 | 1015.2 | |
| 20260901053055 | 65 | 0.0 | 0.0 | 0.00 | 0.00 | 0.00 | 39 | 1015.2 | |
| 20260901052516 | 65 | 0.0 | 0.0 | 0.00 | 0.00 | 0.00 | 40 | 1015.2 | |
| 20260901052016 | 65 | 0.0 | 0.0 | 0.00 | 0.00 | 0.00 | 40 | 1015.3 | |
| 20260901051515 | 65 | 0.0 | 0.0 | 0.00 | 0.00 | 0.00 | 40 | 1015.2 | |
| 20260901051015 | 65 | 0.0 | 0.0 | 0.00 | 0.00 | 0.00 | 39 | 1015.2 | |
| 20260901050515 | 65 | 0.0 | 0.0 | 0.00 | 0.00 | 0.00 | 39 | 1015.2 | |
| 20260901050015 | 65 | 0.0 | 0.0 | 0.00 | 0.00 | 0.00 | 40 | 1015.1 | |
| 20260901045515 | 65 | 0.0 | 0.0 | 0.00 | 0.00 | 0.00 | 41 | 1015.2 | |
| 20260901045035 | 65 | 0.0 | 0.0 | 0.00 | 0.00 | 0.00 | 42 | 1015.2 | |
| 20260901044515 | 65 | 0.0 | 0.0 | 0.00 | 0.00 | 0.00 | 42 | 1015.2 | |
| 20260901044015 | 65 | 0.0 | 0.0 | 0.00 | 0.00 | 0.00 | 42 | 1015.1 | |
| 20260901043515 | 65 | 0.0 | 0.0 | 0.00 | 0.00 | 0.00 | 41 | 1015.1 | |
| 20260901043015 | 65 | 0.0 | 0.0 | 0.00 | 0.00 | 0.00 | 41 | 1015.1 | |
| 20260901042515 | 65 | 0.0 | 0.0 | 0.00 | 0.00 | 0.00 | 41 | 1015.2 | |
| 20260901042015 | 65 | 0.0 | 0.0 | 0.00 | 0.00 | 0.00 | 42 | 1015.2 | |
| 20260901041515 | 65 | 0.0 | 0.0 | 0.00 | 0.00 | 0.00 | 44 | 1015.2 | |
| 20260901041016 | 65 | 0.0 | 0.0 | 0.00 | 0.00 | 0.00 | 44 | 1015.1 | |
| 20260901040515 | 65 | 0.0 | 0.0 | 0.00 | 0.00 | 0.00 | 44 | 1015.1 | |
| 20260901040015 | 65 | 0.0 | 0.0 | 0.00 | 0.00 | 0.00 | 45 | 1015.1 | |
| 20260901035515 | 65 | 0.0 | 0.0 | 0.00 | 0.00 | 0.00 | 45 | 1015.1 | |
| 20260901035015 | 65 | 0.0 | 0.0 | 0.00 | 0.00 | 0.00 | 47 | 1015.2 | |
| 20260901034515 | 65 | 0.0 | 0.0 | 0.00 | 0.00 | 0.00 | 47 | 1015.2 | |
| 20260901034016 | 66 | 0.0 | 0.0 | 0.00 | 0.00 | 0.00 | 46 | 1015.2 | |
| 20260901033515 | 66 | 0.0 | 0.0 | 0.00 | 0.00 | 0.00 | 47 | 1015.3 | |
| 20260901033015 | 66 | 0.0 | 0.0 | 0.00 | 0.00 | 0.00 | 48 | 1015.2 | |
| 20260901032515 | 66 | 0.0 | 0.0 | 0.00 | 0.00 | 0.00 | 48 | 1015.3 | |
| 20260901032015 | 66 | 0.0 | 0.0 | 0.00 | 0.00 | 0.00 | 48 | 1015.3 | |
| 20260901031515 | 66 | 0.0 | 0.0 | 0.00 | 0.00 | 0.00 | 48 | 1015.3 | |
| 20260901031015 | 66 | 0.0 | 0.0 | 0.00 | 0.00 | 0.00 | 49 | 1015.4 | |
| 20260901030515 | 66 | 0.0 | 0.0 | 0.00 | 0.00 | 0.00 | 49 | 1015.3 | |
| 20260901030015 | 66 | 0.0 | 0.0 | 0.00 | 0.00 | 0.00 | 50 | 1015.2 | |
| 20260901025515 | 66 | 0.0 | 0.0 | 0.00 | 0.00 | 0.00 | 50 | 1015.2 | |
| 20260901025015 | 66 | 0.0 | 0.0 | 0.00 | 0.00 | 0.00 | 51 | 1015.2 | |
| 20260901024535 | 66 | 0.0 | 0.0 | 0.00 | 0.00 | 0.00 | 51 | 1015.1 | |
| 20260901024015 | 66 | 0.0 | 0.0 | 0.00 | 0.00 | 0.00 | 51 | 1015.1 | |
| 20260901023535 | 66 | 0.0 | 0.0 | 0.00 | 0.00 | 0.00 | 52 | 1015.2 | |
| 20260901023015 | 66 | 0.0 | 0.0 | 0.00 | 0.00 | 0.00 | 53 | 1015.2 | |
| 20260901022535 | 66 | 0.0 | 0.0 | 0.00 | 0.00 | 0.00 | 54 | 1015.2 | |
| 20260901022015 | 66 | 0.0 | 0.0 | 0.00 | 0.00 | 0.00 | 54 | 1015.1 | |
| 20260901021515 | 66 | 0.0 | 0.0 | 0.00 | 0.00 | 0.00 | 53 | 1015.0 | |
| 20260901021015 | 66 | 0.0 | 0.0 | 0.00 | 0.00 | 0.00 | 53 | 1015.0 | |
| 20260901020515 | 66 | 0.0 | 0.0 | 0.00 | 0.00 | 0.00 | 54 | 1015.0 | |
| 20260901020015 | 66 | 0.0 | 0.0 | 0.00 | 0.00 | 0.00 | 54 | 1015.1 | |
| 20260901015515 | 66 | 0.0 | 0.0 | 0.00 | 0.00 | 0.00 | 54 | 1015.1 | |
| 20260901015015 | 66 | 0.0 | 0.0 | 0.00 | 0.00 | 0.00 | 56 | 1015.1 | |
| 20260901014515 | 66 | 0.0 | 0.0 | 0.00 | 0.00 | 0.00 | 57 | 1015.1 | |
| 20260901014015 | 66 | 0.0 | 0.0 | 0.00 | 0.00 | 0.00 | 57 | 1015.2 | |
| 20260901013515 | 66 | 0.0 | 0.0 | 0.00 | 0.00 | 0.00 | 58 | 1015.2 | |
| 20260901013015 | 66 | 0.0 | 0.0 | 0.00 | 0.00 | 0.00 | 58 | 1015.3 | |
| 20260901012515 | 66 | 0.0 | 0.0 | 0.00 | 0.00 | 0.00 | 58 | 1015.3 | |
| 20260901012015 | 66 | 0.0 | 0.0 | 0.00 | 0.00 | 0.00 | 60 | 1015.4 | |
| 20260901011515 | 66 | 0.0 | 0.0 | 0.00 | 0.00 | 0.00 | 60 | 1015.5 | |
| 20260901011034 | 66 | 0.0 | 0.0 | 0.00 | 0.00 | 0.00 | 61 | 1015.4 | |
| 20260901010517 | 66 | 0.0 | 0.0 | 0.00 | 0.00 | 0.00 | 62 | 1015.4 | |
| 20260901010017 | 67 | 0.0 | 0.0 | 0.00 | 0.00 | 0.00 | 61 | 1015.4 | |
| 20260901005517 | 67 | 0.0 | 0.0 | 0.00 | 0.00 | 0.00 | 61 | 1015.4 | |
| 20260901005036 | 67 | 0.0 | 0.0 | 0.00 | 0.00 | 0.00 | 62 | 1015.3 | |
| 20260901004517 | 67 | 0.0 | 0.0 | 0.00 | 0.00 | 0.00 | 62 | 1015.3 | |
| 20260901004017 | 67 | 0.0 | 0.0 | 0.00 | 0.00 | 0.00 | 62 | 1015.3 | |
| 20260901003517 | 67 | 0.0 | 0.0 | 0.00 | 0.00 | 0.00 | 63 | 1015.3 | |
| 20260901003017 | 67 | 0.0 | 0.0 | 0.00 | 0.00 | 0.00 | 64 | 1015.2 | |
| 20260901002517 | 67 | 0.0 | 0.0 | 0.00 | 0.00 | 0.00 | 64 | 1015.1 | |
| 20260901002057 | 67 | 0.0 | 0.0 | 0.00 | 0.00 | 0.00 | 65 | 1015.0 | |
| 20260901001516 | 68 | 0.0 | 0.0 | 0.00 | 0.00 | 0.00 | 65 | 1015.0 | |
| 20260901001016 | 68 | 0.0 | 0.0 | 0.00 | 0.00 | 0.00 | 66 | 1015.0 | |
| 20260901000517 | 68 | 0.0 | 0.0 | 0.00 | 0.00 | 0.00 | 67 | 1015.0 | |
| 20260901000017 | 68 | 0.0 | 0.0 | 0.00 | 0.00 | 0.00 | 68 | 1015.0 | |
| 20260831235516 | 68 | 0.0 | 0.0 | 0.00 | 0.00 | 0.00 | 68 | 1015.0 | |
| 20260831235016 | 68 | 0.0 | 0.0 | 0.00 | 0.00 | 0.00 | 67 | 1015.0 | |
| 20260831234516 | 69 | 0.0 | 0.0 | 0.00 | 0.00 | 0.00 | 67 | 1015.0 | |
| 20260831234016 | 69 | 0.0 | 0.0 | 0.00 | 0.00 | 0.00 | 67 | 1015.1 | |
| 20260831233516 | 69 | 0.0 | 0.0 | 0.00 | 0.00 | 0.00 | 68 | 1015.2 | |
| 20260831233016 | 69 | 0.0 | 0.0 | 0.00 | 0.00 | 0.00 | 69 | 1015.3 | |
| 20260831232516 | 69 | 0.0 | 0.0 | 0.00 | 0.00 | 0.00 | 71 | 1015.3 | |
| 20260831232016 | 69 | 0.0 | 0.0 | 0.00 | 0.00 | 0.00 | 72 | 1015.3 | |
| 20260831231516 | 70 | 0.0 | 0.0 | 0.00 | 0.00 | 0.00 | 72 | 1015.3 | |
| 20260831231016 | 70 | 0.0 | 0.0 | 0.00 | 0.00 | 0.00 | 73 | 1015.4 | |
| 20260831230516 | 70 | 0.0 | 0.0 | 0.00 | 0.00 | 0.00 | 73 | 1015.4 | |
| 20260831230017 | 71 | 0.0 | 0.0 | 0.00 | 0.00 | 0.00 | 74 | 1015.5 | |
| 20260831225516 | 71 | 0.0 | 0.0 | 0.00 | 0.00 | 0.00 | 74 | 1015.5 | |
| 20260831225016 | 71 | 0.0 | 0.0 | 0.00 | 0.00 | 0.00 | 74 | 1015.5 | |
| 20260831224516 | 72 | 0.0 | 0.0 | 0.00 | 0.00 | 0.00 | 74 | 1015.6 | |
| 20260831224016 | 72 | 0.0 | 0.0 | 0.00 | 0.00 | 0.00 | 74 | 1015.6 | |
| 20260831223516 | 72 | 0.0 | 0.0 | 0.00 | 0.00 | 0.00 | 74 | 1015.6 | |
| 20260831223016 | 72 | 0.0 | 0.0 | 0.00 | 0.00 | 0.00 | 74 | 1015.6 | |
| 20260831222516 | 73 | 0.0 | 1.0 | 0.00 | 0.00 | 0.00 | 73 | 1015.6 | |
| 20260831222036 | 73 | 179 | 0.0 | 1.0 | 0.00 | 0.00 | 0.00 | 73 | 1015.6 |
| 20260831221536 | 73 | 180 | 0.0 | 1.0 | 0.00 | 0.00 | 0.00 | 73 | 1015.6 |